Regional Weather Roundup
Issued by NWS

Home | Current Version | Previous Version | Text Only | Print | Product List | Glossary On
Versions: 1 2 3 4 5 6 7 8 9 10 11 12 13 14 15 16 17 18 19 20 21 22 23 24 25 26 27 28 29 30 31 32 33 34 35 36 37 38 39 40 41 42 43 44 45 46 47 48 49 50
590
ASCA44 KEWX 300020
RWRMX

LATIN AMERICA AND CARIBBEAN REGIONAL WEATHER ROUNDUP
NATIONAL WEATHER SERVICE AUSTIN/SAN ANTONIO TX
700 PM CDT WED MAR 29 2017

NOTE: "FAIR" INDICATED FEW OR NO CLOUDS BELOW 12,000 FEET WITH NO
SIGNIFICANT WEATHER AND/OR OBSTRUCTIONS TO VISIBILITY.

BAJA CALIFORNIA

CITY           SKY/WX    TMP DP  RH WIND       PRES   REMARKS
LORETO         SUNNY     81  59  47 NE8       29.89S
LA PAZ         MOSUNNY   79  45  29 N8        29.93R
MEXICALI       SUNNY     86  19   8 NW8       29.90F
S.J. DEL CABO  MOSUNNY   77  50  38 SE13      29.91S
TIJUANA        SUNNY     77  27  15 W8        30.03S

NORTHWESTERN MEXICO

CITY           SKY/WX    TMP DP  RH WIND       PRES   REMARKS
CULIACAN       SUNNY     82  52  34 W12       29.86S
DURANGO        MOSUNNY   75   7   7 SW20      30.05R
GUAYMAS        SUNNY     79  52  38 W21       29.81F
HERMOSILLO     SUNNY     90  27  10 SW12      29.87F
CD. JUAREZ     PTSUNNY   66  36  32 N9        29.94R
LOS MOCHIS     SUNNY     79  45  29 NW14      29.90R
OBREGON        SUNNY     81  37  21 W17       29.85R

NORTHEASTERN MEXICO

CITY           SKY/WX    TMP DP  RH WIND       PRES   REMARKS
CHIHUAHUA      MOSUNNY   72  23  16 N13       29.96S
MATAMOROS      MOCLDY    81  73  78 E13       29.71R
MONCLOVA         N/A    N/A N/A N/A MISG        N/A
MONTERREY      MOSUNNY   86  36  16 E8        29.74R
NUEVO LAREDO   SUNNY     88  54  31 E12       29.73R
PIEDRAS NEGRAS SUNNY     84  43  23 N9        29.77R
REYNOSA        MOSUNNY   82  32  16 NE12      29.72R
SALTILLO       SUNNY     79  50  36 N9        29.91S
TORREON        MOSUNNY   86  23  10 N16       29.77F
CD. VICTORIA   MOSUNNY   91  54  27 NW12      29.67F

WESTERN MEXICO

CITY           SKY/WX    TMP DP  RH WIND       PRES   REMARKS
AGUASCALIENTES PTSUNNY   77   0   5 W15       30.10R
COLIMA         PTSUNNY   81  55  41 W24       29.94R
DEL BAJIO      PTSUNNY   79  19  11 W13       30.12R
GUADALAJARA    CLOUDY    82  12   7 SW16      30.04R
MANZANILLO     PTSUNNY   81  68  65 W12       29.82R
MAZATLAN       MOSUNNY   79  54  41 NW14      29.91S
P. VALLARTA    CLOUDY    77  68  73 SW8       29.87S
URUAPAN        CLOUDY    79  43  27 S7        30.08R
ZACATECAS      PTSUNNY   73  18  12 W20G32    30.11R

CENTRAL MEXICO

CITY           SKY/WX    TMP DP  RH WIND       PRES   REMARKS
CUERNAVACA     SUNNY     90  32  12 W8        29.93R
MEXICO CITY    MOSUNNY   79  27  14 S15       30.15R
MORELIA        PTSUNNY   75  32  20 S10       30.08R
POZA RICA      CLEAR     86  73  66 NE12      29.70R HX  93
PUEBLA         MOSUNNY   73  27  17 S25       30.13S
QUERETARO        N/A    N/A N/A N/A MISG        N/A
S. LUIS POTOSI PTSUNNY   81 -22   1 SW12G23   30.03R
TAMPICO        MOCLDY    79  75  89 E23       29.62S
TOLUCA         MOSUNNY   70  27  19 W14       30.27R

SOUTHERN MEXICO

CITY           SKY/WX    TMP DP  RH WIND       PRES   REMARKS
ACAPULCO       SUNNY     81  70  69 W9        29.80R
B. DE HUATULCO CLEAR     82  75  78 SW17G29   29.85R
OAXACA         MOCLDY    84  43  23 S15       29.96R
P. ESCONDIDO   PTCLDY    82  75  78 W12       29.92R
VERACRUZ       PTCLDY    82  73  74 E7        29.64R
ZIHUATANEJO    SUNNY     82  70  65 SW12      29.81S

YUCATAN PENINSULA

CITY           SKY/WX    TMP DP  RH WIND       PRES   REMARKS
CAMPECHE       PTCLDY    90  73  58 NW12      29.67S HX  98
CANCUN         PTCLDY    79  70  73 SE12      29.88S
CHETUMAL       PTCLDY    82  72  69 SE14      29.82R
CD. DEL CARMEN CLEAR     84  75  74 NE9       29.68R HX  92
COZUMEL        PTCLDY    81  70  69 SE12      29.86R
MERIDA         PTCLDY    99  59  26 SE9       29.73S HX  98
MINATITLAN     CLEAR     93  66  40 S18       29.64R HX  96
TAPACHULA      PTCLDY    86  72  62 W9        29.79R HX  92
TUX. GUTIERREZ PTCLDY    90  59  35 S8G20     29.77R
VILLAHERMOSA   CLEAR     91  72  52 NE6       29.68R HX  98

CENTRAL AMERICA

CITY           SKY/WX    TMP DP  RH WIND       PRES   REMARKS
BELIZE CITY    PTCLDY    81  77  89 E9        29.81R

CARIBBEAN

CITY           SKY/WX    TMP DP  RH WIND       PRES   REMARKS
ARUBA          PTCLDY    81  75  83 E14       29.83R
CURACAO        PTCLDY    81  73  78 E12       29.86S
KINGSTON       PTCLDY    82  72  69 S5        29.89R
NASSAU         PTCLDY    75  64  69 CALM      30.02S
SAN JUAN       PTCLDY    79  72  78 N9        29.96R
SANTO DOMINGO  PTCLDY    79  70  73 NE8       29.92R
ST. CROIX      PTCLDY    77  72  83 NE5       29.95R
ST. KITTS      PTCLDY    77  73  88 N5        29.92S
ST. MAARTEN    PTCLDY    81  73  78 N6        29.94R
ST. THOMAS     PTCLDY    79  73  83 N15       29.94R

$$





USA.gov is the U.S. government's official web portal to all federal, state and local government web resources and services.